Regional Weather Roundup
Issued by NWS

Home | Current Version | Previous Version | Text Only | Print | Product List | Glossary On
Versions: 1 2 3 4 5 6 7 8 9 10 11 12 13 14 15 16 17 18 19 20 21 22 23 24 25 26 27 28 29 30 31 32 33 34 35 36 37 38 39 40 41 42 43 44 45 46 47 48 49 50
000
ASCA44 KEWX 310620
RWRMX

LATIN AMERICA AND CARIBBEAN REGIONAL WEATHER ROUNDUP
NATIONAL WEATHER SERVICE AUSTIN/SAN ANTONIO TX
100 AM CDT SUN AUG 31 2014

NOTE: "FAIR" INDICATED FEW OR NO CLOUDS BELOW 12,000 FEET WITH NO
SIGNIFICANT WEATHER AND/OR OBSTRUCTIONS TO VISIBILITY.

BAJA CALIFORNIA

CITY           SKY/WX    TMP DP  RH WIND       PRES   REMARKS
LA PAZ           N/A    N/A N/A N/A MISG        N/A
TIJUANA        CLEAR     68  63  83 CALM      29.83R

NORTHWESTERN MEXICO

CITY           SKY/WX    TMP DP  RH WIND       PRES   REMARKS
CULIACAN         N/A    N/A N/A N/A MISG        N/A

NORTHEASTERN MEXICO

CITY           SKY/WX    TMP DP  RH WIND       PRES   REMARKS
MONTERREY      PTCLDY    77  68  73 SE6       29.96R
REYNOSA        MOCLDY    79  73  83 S6        29.93
TORREON        CLEAR     81  57  44 NE17      30.03S
CD. VICTORIA   CLEAR     77  72  83 S8        29.94F

WESTERN MEXICO

CITY           SKY/WX    TMP DP  RH WIND       PRES   REMARKS
DEL BAJIO      CLEAR     64  50  59 N7        30.24R
GUADALAJARA    CLEAR     64  61  88 CALM      30.11F
MAZATLAN       CLOUDY    79  75  89 NE7       29.82S
P. VALLARTA    CLOUDY    79  75  89 NE7       29.83S
ZACATECAS      PTCLDY    64  48  55 S3        30.28S

CENTRAL MEXICO

CITY           SKY/WX    TMP DP  RH WIND       PRES   REMARKS
MEXICO CITY    CLOUDY    61  55  82 S7        30.30S
MORELIA        RAIN      61  61 100 W5        30.22S
QUERETARO      PTCLDY    64  57  77 NE9       30.27S
S. LUIS POTOSI PTCLDY    64  59  82 E3        30.24F
TOLUCA         LGT RAIN  54  48  82 SE2       30.39R FOG

SOUTHERN MEXICO

CITY           SKY/WX    TMP DP  RH WIND       PRES   REMARKS
ACAPULCO       CLOUDY    79  75  89 NE5       29.87R

YUCATAN PENINSULA

CITY           SKY/WX    TMP DP  RH WIND       PRES   REMARKS
CANCUN         CLOUDY    79  77  94 NE3       29.96R
COZUMEL        CLOUDY    73  73 100 CALM      29.94F
MERIDA         CLEAR     77  72  83 E5        29.93S
TAPACHULA      PTCLDY    77  73  88 CALM      29.90F

CENTRAL AMERICA

CITY           SKY/WX    TMP DP  RH WIND       PRES   REMARKS
MANAGUA        PTCLDY    77  73  88 CALM      29.86S

CARIBBEAN

CITY           SKY/WX    TMP DP  RH WIND       PRES   REMARKS
ARUBA          PTCLDY    82  73  74 E15       29.89F
CURACAO        PTCLDY    81  75  83 E8        29.94S
KINGSTON       LGT RAIN  84  77  79 SE14      29.97S HX  94
NASSAU         PTCLDY    82  77  83 E9        30.10S HX  91
SAN JUAN       PTCLDY    81  75  83 CALM      30.02F
SANTO DOMINGO  PTCLDY    75  73  94 N7        30.00S
ST. CROIX      PTCLDY    77  73  88 NE6       30.01F
ST. MAARTEN    PTCLDY    81  72  74 E12       30.00F

$$



USA.gov is the U.S. government's official web portal to all federal, state and local government web resources and services.